Stations météo

Publicité
Aurillac, France (7549): Température de l'air & dewpoint: 18.05.2017 11:00:00 - 24.05.2017 11:00:00 (CEST)Aurillac, France (7549): Température de l'air 5cm: 18.05.2017 11:00:00 - 24.05.2017 11:00:00 (CEST)Aurillac, France (7549): Température de l'air -20cm & Température de l'air -100cm: 18.05.2017 11:00:00 - 24.05.2017 11:00:00 (CEST)Aurillac, France (7549): Vitesse du vent & gusts: 18.05.2017 11:00:00 - 24.05.2017 11:00:00 (CEST)Aurillac, France (7549): Direction du vent: 18.05.2017 11:00:00 - 24.05.2017 11:00:00 (CEST)Aurillac, France (7549): reduced air pressure: 18.05.2017 11:00:00 - 24.05.2017 11:00:00 (CEST)Aurillac, France (7549): visibility: 18.05.2017 11:00:00 - 24.05.2017 11:00:00 (CEST)Aurillac, France (7549): Ensoleillement: 18.05.2017 11:00:00 - 24.05.2017 11:00:00 (CEST)Aurillac, France (7549): Quantités de précipitations: 18.05.2017 11:00:00 - 24.05.2017 11:00:00 (CEST)
Date & Time tt [°C] td [°C] tt 5cm [°C] tt -20cm [°C] tt -100cm [°C] ff [km/h] ff [knt] fx [km/h] fx [knt] dd ppp [hPa] vv [km] sd [min] rr [mm]
24.05.2017 11:00:00 20,0 12,0 25,8 15,6 12,4 8 4 18 10 E 1021,2 19 60 0,0
24.05.2017 10:00:00 16,5 14,1 20,6 15,7 12,4 4 2 8 4 WNW 1022,2 20 60 0,0
24.05.2017 09:00:00 13,7 12,8 - - - 4 2 5 3 NW 1023,1 17 - 0,0
24.05.2017 08:00:00 11,2 11,2 10,0 15,8 12,4 0 0 4 2 N 1023,6 0,3 13 0,0
24.05.2017 07:00:00 9,8 9,8 8,3 15,8 12,4 0 0 5 3 N 1024,0 0,1 0 0,0
24.05.2017 06:00:00 10,4 10,4 9,4 15,9 12,4 3 2 5 3 E 1023,7 0,1 0 0,0
24.05.2017 05:00:00 10,2 10,2 8,8 15,9 12,4 0 0 5 3 N 1023,8 0,1 0 0,0
24.05.2017 04:00:00 10,8 10,8 10,3 16,0 12,4 4 2 6 3 E 1023,7 0,1 0 0,0
24.05.2017 03:00:00 11,7 11,7 10,4 16,0 12,4 2 1 7 4 ESE 1023,8 0,1 0 0,2
24.05.2017 02:00:00 11,7 11,5 7,7 16,0 12,4 4 2 7 4 ESE 1023,8 0,6 0 0,0
24.05.2017 01:00:00 12,2 11,9 9,1 16,0 12,4 6 3 7 4 ESE 1023,8 7 0 0,0
24.05.2017 00:00:00 12,8 12,0 10,8 15,9 12,3 0 0 8 4 N 1024,0 3,7 0 0,0
23.05.2017 23:00:00 13,4 12,3 11,3 15,9 12,3 6 3 14 7 W 1023,8 15 0 0,0
23.05.2017 22:00:00 14,3 12,7 13,0 15,8 12,3 7 4 18 10 WNW 1023,3 16 0 0,0
23.05.2017 21:00:00 16,0 13,1 15,5 15,6 12,3 10 6 21 12 WNW 1022,5 35 40 0,0
23.05.2017 20:00:00 17,9 13,8 18,8 15,5 12,3 16 8 24 13 WNW 1021,8 47 60 0,0
23.05.2017 19:00:00 18,8 13,9 20,9 15,4 12,3 17 9 26 14 WNW 1021,3 20 53 0,0
23.05.2017 18:00:00 19,5 14,7 22,5 15,4 12,3 17 9 26 14 WNW 1021,0 19 44 0,0
23.05.2017 17:00:00 20,1 14,5 25,2 15,3 12,3 13 7 25 14 W 1021,0 20 52 0,0
23.05.2017 16:00:00 19,9 14,7 26,5 15,3 12,3 16 9 23 13 W 1021,0 19 60 0,0
23.05.2017 15:00:00 18,6 13,7 21,7 15,2 12,3 12 7 23 12 W 1021,8 20 50 0,0
23.05.2017 14:00:00 18,2 13,9 23,3 15,2 12,3 15 8 26 14 WNW 1022,1 48 34 0,0
23.05.2017 13:00:00 16,6 13,5 21,5 15,3 12,3 15 8 23 12 WNW 1022,7 19 20 0,0
23.05.2017 12:00:00 15,5 14,0 16,2 15,3 12,3 11 6 18 10 NW 1023,0 18 1 0,0
23.05.2017 11:00:00 13,9 13,4 15,3 15,3 12,3 11 6 16 9 WNW 1023,5 5 0 0,0
23.05.2017 10:00:00 13,8 13,3 14,7 15,3 12,3 10 6 14 8 NW 1023,3 6 0 0,0
23.05.2017 09:00:00 13,2 13,0 13,6 15,4 12,3 9 5 14 8 NNW 1023,0 2,4 0 0,0
23.05.2017 08:00:00 12,9 12,7 13,4 15,4 12,3 8 5 18 10 NW 1022,3 1,4 0 0,0
23.05.2017 07:00:00 13,1 12,9 13,0 15,5 12,3 11 6 15 8 NW 1021,6 1,4 0 0,0
23.05.2017 06:00:00 13,0 12,7 12,8 15,5 12,3 4 2 8 4 NW 1021,2 9 0 0,0
23.05.2017 05:00:00 13,0 12,5 - - - 5 3 11 6 WNW 1020,8 13 - -
23.05.2017 04:00:00 12,1 11,5 8,3 15,6 12,3 5 3 8 4 SW 1021,0 16 0 0,0
23.05.2017 03:00:00 13,5 12,2 9,5 15,5 12,3 5 3 7 4 N 1020,5 41 0 0,0
23.05.2017 02:00:00 14,2 12,8 11,1 15,5 12,3 5 3 10 5 NW 1020,4 50 0 0,0
23.05.2017 01:00:00 14,8 12,3 12,2 15,5 12,3 6 4 12 6 S 1020,3 60 0 0,0
23.05.2017 00:00:00 15,9 12,3 - - - 0 0 4 2 N 1019,4 60 - 0,0
22.05.2017 23:00:00 17,3 12,2 13,3 15,4 12,3 0 0 7 4 N 1018,6 60 0 0,0
22.05.2017 22:00:00 18,5 12,7 - - - 4 2 13 7 NNW 1017,8 60 - 0,0
22.05.2017 21:00:00 20,1 12,1 18,6 15,2 12,3 5 3 11 6 NW 1016,7 60 12 0,0
22.05.2017 20:00:00 20,7 11,6 - - - 2 1 13 7 WNW 1016,0 60 - -
22.05.2017 19:00:00 21,4 11,4 - - - 9 5 22 12 NW 1015,7 60 - 0,0
22.05.2017 18:00:00 22,6 11,3 24,9 14,8 12,2 3 2 18 10 WSW 1015,4 60 10 0,0
22.05.2017 17:00:00 23,3 10,0 28,4 14,7 12,2 10 6 23 12 WSW 1015,2 60 50 0,0
22.05.2017 16:00:00 22,4 9,2 - - - 5 3 18 10 SSE 1015,7 60 - 0,0
22.05.2017 15:00:00 21,4 9,0 26,6 14,7 12,2 10 6 24 13 SSE 1015,9 19 52 0,0
22.05.2017 14:00:00 20,4 7,4 21,7 14,7 12,2 9 5 24 13 SE 1016,5 60 16 0,0
22.05.2017 13:00:00 17,5 6,1 16,9 14,7 12,2 13 7 23 12 SSE 1017,5 60 0 0,0
22.05.2017 12:00:00 17,5 3,7 - - - 9 5 22 12 SSE 1017,5 60 - 0,0
22.05.2017 11:00:00 18,6 3,6 19,2 14,7 12,2 15 8 26 14 SSE 1016,6 60 34 0,0
22.05.2017 10:00:00 17,7 3,6 17,7 14,7 12,2 13 7 31 17 ESE 1016,3 60 4 0,0
22.05.2017 09:00:00 17,6 2,7 - - - 13 7 24 13 E 1015,7 60 - 0,0
22.05.2017 08:00:00 14,2 2,1 11,7 14,9 12,2 14 7 22 12 E 1016,5 60 2 0,0
22.05.2017 07:00:00 12,8 2,3 11,4 14,9 12,2 12 7 18 10 E 1016,6 60 0 0,0
22.05.2017 06:00:00 13,0 2,5 11,6 15,0 12,2 14 8 22 12 E 1015,6 60 0 0,0
22.05.2017 05:00:00 13,8 2,7 12,2 15,0 12,2 14 8 24 13 E 1015,5 60 0 0,0
22.05.2017 04:00:00 13,4 3,7 11,3 15,1 12,2 15 8 23 12 E 1016,1 60 0 0,0
22.05.2017 03:00:00 13,1 4,8 9,9 15,1 12,2 12 7 21 12 ESE 1016,5 60 0 0,0
22.05.2017 02:00:00 12,0 6,1 - - - 9 5 15 8 ESE 1017,5 60 - -
22.05.2017 01:00:00 12,2 7,1 10,7 15,0 12,2 10 6 20 11 ESE 1017,8 60 0 0,0
22.05.2017 00:00:00 12,8 7,9 11,2 14,9 12,2 10 5 15 8 E 1018,0 60 0 0,0
21.05.2017 23:00:00 14,2 8,6 12,4 14,8 12,2 11 6 15 8 E 1017,7 60 0 0,0
21.05.2017 22:00:00 15,8 10,3 13,4 14,6 12,2 8 5 11 6 ESE 1017,0 60 0 0,0
21.05.2017 21:00:00 18,9 10,2 15,2 14,4 12,2 6 4 13 7 SSE 1016,4 60 42 0,0
21.05.2017 20:00:00 21,0 9,3 20,9 14,3 12,2 7 4 14 8 SSE 1016,0 60 60 0,0
21.05.2017 19:00:00 21,6 8,5 25,6 14,1 12,2 9 5 18 10 S 1016,2 60 60 0,0
21.05.2017 18:00:00 22,3 5,7 29,7 13,9 12,2 4 2 14 7 ESE 1016,6 60 60 0,0
21.05.2017 17:00:00 21,7 5,6 28,7 13,8 12,2 7 4 18 10 SE 1017,3 60 60 0,0
21.05.2017 16:00:00 21,1 8,0 27,2 13,6 12,2 6 4 18 10 E 1017,9 19 60 0,0
21.05.2017 15:00:00 20,1 7,5 26,7 13,5 12,2 5 3 18 10 SE 1018,9 60 60 0,0
21.05.2017 14:00:00 18,9 7,9 26,9 13,5 12,2 11 6 22 12 ESE 1019,5 60 60 0,0
21.05.2017 13:00:00 18,2 5,7 25,3 13,5 12,2 9 5 20 11 E 1020,3 60 60 0,0
21.05.2017 12:00:00 17,6 7,3 25,4 13,5 12,2 6 3 15 8 E 1021,0 60 60 0,0
21.05.2017 11:00:00 16,1 5,7 21,8 13,5 12,1 6 3 19 10 ENE 1021,8 58 60 0,0
21.05.2017 10:00:00 14,0 7,5 17,5 13,6 12,2 4 2 9 5 E 1022,5 60 60 0,0
21.05.2017 09:00:00 11,0 7,1 9,6 13,7 12,2 2 1 5 3 ESE 1023,8 60 60 0,0
21.05.2017 08:00:00 6,4 5,5 3,3 13,8 12,2 0 0 9 5 N 1025,2 39 60 0,0
21.05.2017 07:00:00 3,8 3,7 - - - 4 2 8 4 E 1026,2 13 - 0,0
21.05.2017 06:00:00 3,1 3,0 - - - 4 2 8 4 E 1026,4 3,9 - 0,0
21.05.2017 05:00:00 3,5 3,4 -0,2 14,0 12,1 8 4 9 5 SE 1026,2 0,9 0 0,0
21.05.2017 04:00:00 4,1 4,0 0,8 14,1 12,1 6 4 10 5 ESE 1026,5 7 0 0,0
21.05.2017 03:00:00 4,7 4,6 0,9 14,1 12,1 4 2 8 5 E 1026,7 3,5 0 0,0
21.05.2017 02:00:00 5,2 4,9 - - - 5 3 8 4 E 1027,2 1,5 - -
21.05.2017 01:00:00 6,6 5,7 2,1 14,1 12,1 7 4 11 6 ENE 1027,2 19 0 0,0
21.05.2017 00:00:00 7,5 6,6 2,6 14,1 12,1 4 2 6 3 N 1027,0 19 0 0,0
20.05.2017 23:00:00 9,0 7,0 3,7 14,1 12,1 3 2 6 4 NNE 1026,5 59 0 0,0
20.05.2017 22:00:00 10,3 7,7 5,3 14,1 12,1 4 2 9 5 WNW 1025,9 58 0 0,0
20.05.2017 21:00:00 12,3 8,4 11,5 13,9 12,1 4 2 10 5 WNW 1025,1 60 0 0,0
20.05.2017 20:00:00 12,6 7,5 13,3 13,9 12,1 4 2 9 5 WNW 1024,6 60 2 0,0
20.05.2017 19:00:00 12,8 7,5 14,2 13,8 12,1 6 3 13 7 W 1024,4 60 2 0,0
20.05.2017 18:00:00 12,8 7,5 12,2 13,8 12,1 7 4 21 11 WNW 1024,4 20 8 0,0
20.05.2017 17:00:00 12,0 8,3 12,9 13,7 12,1 14 8 24 13 SW 1024,5 60 0 0,0
20.05.2017 16:00:00 13,5 5,9 17,7 13,7 12,0 8 4 19 11 NW 1023,6 60 14 0,0
20.05.2017 15:00:00 13,8 7,3 - - - 11 6 26 14 WSW 1023,4 60 - 0,0
20.05.2017 14:00:00 11,2 7,7 - - - 4 2 15 8 SW 1024,3 55 - -
20.05.2017 13:00:00 10,2 6,9 - - - 8 4 13 7 SW 1024,6 15 - 0,2
20.05.2017 12:00:00 10,0 6,0 10,4 13,8 12,0 8 4 17 9 S 1024,6 20 0 0,0
20.05.2017 11:00:00 9,3 5,5 9,6 13,8 12,0 7 4 16 9 WSW 1024,4 60 3 0,0
20.05.2017 10:00:00 8,8 6,1 8,3 13,8 12,0 5 3 16 8 SW 1024,2 60 12 0,0
20.05.2017 09:00:00 7,7 6,2 8,3 13,9 12,0 6 3 10 6 SW 1024,1 57 0 0,0
20.05.2017 08:00:00 7,2 6,3 7,0 14,0 12,0 3 1 5 3 SE 1023,7 20 0 0,0
20.05.2017 07:00:00 6,7 6,3 6,4 14,0 12,0 3 1 9 5 W 1023,4 18 0 0,4
20.05.2017 06:00:00 6,6 6,0 6,0 14,1 12,0 6 3 13 7 W 1022,9 19 0 0,0
20.05.2017 05:00:00 6,9 6,3 6,3 14,2 12,0 8 5 15 8 W 1022,6 14 0 0,0
20.05.2017 04:00:00 6,8 6,1 6,2 14,2 12,0 10 5 18 10 W 1022,7 56 0 0,2
20.05.2017 03:00:00 7,0 6,4 6,3 14,2 12,0 4 2 14 8 W 1022,6 12 0 0,0
20.05.2017 02:00:00 7,3 6,6 6,7 14,3 12,0 9 5 21 11 W 1022,7 59 0 0,0
20.05.2017 01:00:00 7,3 6,7 6,9 14,3 12,0 11 6 20 11 SW 1022,5 20 0 0,0
20.05.2017 00:00:00 7,0 6,6 5,3 14,4 12,0 6 3 9 5 SW 1022,9 60 0 0,0
19.05.2017 23:00:00 6,6 6,0 - - - 4 2 18 10 WSW 1023,0 40 - -
19.05.2017 22:00:00 7,6 6,7 7,4 14,3 11,9 17 9 27 14 NW 1022,3 5 0 1,0
19.05.2017 21:00:00 9,0 6,4 8,0 14,3 11,9 8 4 14 7 WNW 1021,3 60 19 0,0
19.05.2017 20:00:00 9,7 6,0 9,5 14,3 11,9 9 5 29 16 NW 1020,6 60 17 0,2
19.05.2017 19:00:00 10,1 5,9 - - - 4 2 18 10 NW 1019,9 60 - 0,0
19.05.2017 18:00:00 8,7 5,4 9,9 14,2 11,9 6 4 30 16 WNW 1020,4 60 7 0,2
19.05.2017 17:00:00 8,6 6,7 7,8 14,2 11,9 15 8 37 20 W 1020,1 5 7 1,0
19.05.2017 16:00:00 11,6 7,1 9,6 14,2 11,9 8 5 30 16 W 1018,6 10 24 0,4
19.05.2017 15:00:00 11,2 4,4 13,4 14,2 11,9 18 10 29 16 W 1018,8 60 22 0,2
19.05.2017 14:00:00 10,5 7,7 11,4 14,2 11,9 16 9 27 15 SSW 1018,9 25 30 0,0
19.05.2017 13:00:00 9,9 6,4 10,2 14,2 11,9 15 8 26 14 W 1019,1 15 31 0,0
19.05.2017 12:00:00 8,4 5,7 9,4 14,3 11,9 17 9 33 18 WNW 1019,9 17 16 0,0
19.05.2017 11:00:00 9,8 5,6 9,0 14,4 11,9 13 7 26 14 W 1019,1 60 19 0,0
19.05.2017 10:00:00 8,3 6,1 7,9 14,4 11,9 12 6 21 11 WSW 1019,3 60 26 0,0
19.05.2017 09:00:00 7,4 5,9 7,8 14,5 11,8 6 3 16 8 WSW 1019,3 11 2 0,2
19.05.2017 08:00:00 6,9 5,8 6,8 14,6 11,9 11 6 18 10 WNW 1019,2 41 3 0,2
19.05.2017 07:00:00 6,6 6,2 6,6 14,7 11,8 10 5 16 9 W 1018,4 20 0 0,0
19.05.2017 06:00:00 6,6 6,3 6,3 14,9 11,8 6 3 12 6 W 1018,1 20 0 0,2
19.05.2017 05:00:00 6,6 6,3 6,1 15,0 11,8 9 5 15 8 W 1018,1 8 0 0,2
19.05.2017 04:00:00 5,9 5,6 5,8 15,1 11,8 2 1 8 4 S 1018,1 8 0 0,2
19.05.2017 03:00:00 5,7 5,4 5,7 15,2 11,8 4 2 7 4 E 1018,6 9 0 0,8
19.05.2017 02:00:00 5,6 5,2 5,6 15,4 11,8 2 1 4 2 SE 1018,8 9 0 1,6
19.05.2017 01:00:00 5,7 5,1 - - - 2 1 5 3 SE 1019,2 6 - 1,0
19.05.2017 00:00:00 5,7 5,0 5,3 15,6 11,8 3 1 20 11 W 1019,5 11 0 2,6
18.05.2017 23:00:00 6,0 5,1 5,7 15,7 11,8 11 6 22 12 WNW 1019,8 6 0 2,4
18.05.2017 22:00:00 6,6 5,5 6,5 15,7 11,8 20 11 31 17 W 1019,1 20 0 2,5
18.05.2017 21:00:00 8,1 7,7 8,1 15,9 11,8 18 10 29 16 WNW 1017,4 6 0 3,6
18.05.2017 20:00:00 8,6 8,0 8,6 15,9 11,7 13 7 35 19 NW 1016,2 7 0 2,0
18.05.2017 19:00:00 8,9 8,4 9,0 15,9 11,7 23 13 41 22 WNW 1015,4 10 0 7,5
18.05.2017 18:00:00 9,6 9,3 9,8 15,9 11,7 22 12 45 24 W 1014,4 2,8 0 5,6
18.05.2017 17:00:00 13,6 12,3 13,2 15,8 11,7 16 9 26 14 WSW 1011,2 1,8 0 5,5
18.05.2017 16:00:00 15,7 12,1 14,2 15,8 11,7 10 5 27 14 SSW 1010,7 20 0 0,6
18.05.2017 15:00:00 17,7 9,6 17,4 15,8 11,7 18 10 45 25 S 1010,5 60 0 0,0
18.05.2017 14:00:00 19,2 7,9 20,3 15,7 11,7 31 17 52 28 S 1010,2 37 8 0,0
18.05.2017 13:00:00 20,1 10,5 21,7 15,8 11,7 21 11 45 24 SSE 1010,1 29 37 0,0
18.05.2017 12:00:00 19,5 10,2 23,6 15,9 11,7 23 12 38 20 SSE 1010,9 17 56 0,0
18.05.2017 11:00:00 18,1 12,8 17,9 15,9 11,7 14 8 27 15 SE 1011,5 20 31 0,0

tt = Température de l'air
td = dewpoint
tt 5cm = Température de l'air 5cm
tt -20cm = Température de l'air -20cm
tt -100cm = Température de l'air -100cm
ff = Vitesse du vent
fx = gusts
dd = Direction du vent
ppp = reduced air pressure
vv = visibility
sd = Ensoleillement
rr = Quantités de précipitations

stations d'obs. à proximité